CZ-4 DEB, 26140

Orbit data source: Space-Track

CZ-4 DEB, 26140 is space debris in SSO originally from a launch on Thu, 14 Oct 1999 UTC launched from the Taiyaun Space Center, China (TSC). Debris objects in space refer to the collection of defunct objects orbiting the Earth. Examples of debris include non-operational satellites, rocket bodies, and fragments generated from explosions, collisions, or faulty payload assembly.

Loading next visibility...
Identifier
26140, 1999-057AC
Orbit
SSO
Country
Flag of CNCN / PRC
Related business
Manufacturer
Unknown
Mission
Spacecraft
Bus & Motor
Unknown
Mass
Unknown
Launch date (UTC)
1999-10-14 (26 years ago)
Launch vehicle
Unknown
Launch site
Taiyaun Space Center, China (TSC)
Object type
Payload
Rocket body
Debris
Shape & HBR
Unknown
Radar Cross Section
Small (<0.1 m²)

Expand to show TLE details & history
Last TLE update: 15 hours ago

TLE from 15 hours ago
0 CZ-4 DEB
1 26140U 99057AC  25258.20128692  .00008160  00000-0  14385-2 0  9993
2 26140  99.3395 155.3104 0144406  39.4936 113.5666 14.61192381333794
Epoch: 2025-09-15T04:49Z
TLE epoch observation values (Epoch: 2025-09-15T04:49:51.189Z)
Latitude
25.104°
Longitude
-87.16661°
Altitude
734.43 km
Speed
7.468 km/s
True Right ascension
22h 38m 49s
True Declination
24° 58' 18"
Sunlit
Object was in full shadow at epoch
Visualization orbit readout
Latitude
Unknown
Longitude
Unknown
Altitude
Unknown
Speed
Unknown
Apparent Right ascension
Unknown
Apparent Declination
Unknown
Sunlit
N/A
Visualization observer readout
Local Sidereal Time
12:16:38
Azimuth
Unknown
Elevation
Unknown
Doppler factor
Unknown
Orbital elements
Apogee altitude
788.478 km
Perigee altitude
584.444 km
Semi-major axis
7,064.598 km
Eccentricity
0.01444
Inclination
99.3395°
RAAN
155.3104°
Arg. of periapsis
39.4936°
True anomaly
115.07231°
Mean anomaly
113.5666°
Eccentric anomaly
114.32056°
Mean motion
3.65521 °/min
Orbital period
98.49 mins
BSTAR
0.0014385
Loading maneuver chart data...
Computing Atmospheric mass density...
Loading historical data...
Loading historical data...
Loading historical data...
Loading historical data...
Loading historical data...
Loading historical data...
Loading historical data...

Documentation

Showing up to 5 results
|